Regional Weather Roundup
Issued by NWS

Home | Current Version | Previous Version | Text Only | Print | Product List | Glossary On
Versions: 1 2 3 4 5 6 7 8 9 10 11 12 13 14 15 16 17 18 19 20 21 22 23 24 25 26 27 28 29 30 31 32 33 34 35 36 37 38 39 40 41 42 43 44 45 46 47 48 49 50
000
ASUS42 KTBW 200016
RWRFL
FLORIDA REGIONAL WEATHER ROUNDUP
NATIONAL WEATHER SERVICE TAMPA BAY RUSKIN FL
800 PM EDT SUN APR 19 2015

NOTE: "FAIR" INDICATES FEW OR NO CLOUDS BELOW 12,000 FEET WITH NO
SIGNIFICANT WEATHER AND/OR OBSTRUCTIONS TO VISIBILITY.


FLZ001>010-012>015-112-114-115-200100-
PANHANDLE FLORIDA

CITY           SKY/WX    TMP DP  RH WIND       PRES   REMARKS
PENSACOLA      CLEAR     75  68  78 S7        29.78S
PENSACOLA NAS  PTCLDY    74  70  87 SW8       29.78S
MILTON NAS     PTCLDY    74  69  85 S9        29.78
CRESTVIEW      PTCLDY    74  68  81 S12       29.81R
DUKE FIELD     FAIR      74  68  82 S12       29.79S
VALPARAISO     CLOUDY    74  70  88 S9        29.81R
MARY ESTHER    MOCLDY    74  66  76 S8        29.80
TRI COUNTY     FAIR      72  65  78 S9        29.81F
PANAMA CITY    FAIR      73  64  73 S13       29.82S
TYNDALL AFB    PTCLDY    72  64  76 S8        29.84S
APALACHICOLA   CLOUDY    75  64  68 S12       29.85S

STATION/POSITION SKY/WX   TEMP    WIND        PRES    WAVE   SWELL
                          AIR SEA DIR/SP/G            HT/PER HT/PER
                          (F)     (DEG/KT/KT) (MB)    (FT/S) (FT/S)
30.1N   87.6W              74 74  220/ 10/ 12 1008.0S   4/ 7   3/ 7
29.2N   88.2W              75 75  220/  8/  8 1009.7R   6/ 8   5/ 8
28.8N   86.0W              74 76  200/ 16/ 19 1010.9R   4/ 7
PANAMA CITY BEAC           74 75  180/ 14/ 15 1010.1R
CAPE SAN BLAS    NOT AVBL
TOWER C                    72     190/ 12/ 13 1010.9R
28.5N   84.5W              75 76  220/ 14/ 16 1011.7F   4/ 6

$$
FLZ011-016>038-118-127-128-134-139-239-200100-
NORTH FLORIDA

CITY           SKY/WX    TMP DP  RH WIND       PRES   REMARKS
MARIANNA       PTCLDY    72  67  84 S8        29.80F
TALLAHASSEE    CLOUDY    72  67  84 S6        29.83F
PERRY          CLOUDY    68  67  98 SE5       29.85F
CROSS CITY       N/A     69  67  93 CALM      29.85F
LAKE CITY      FAIR      66  64  94 CALM      29.85F
GAINESVILLE    CLOUDY    67  65  93 S8        29.87F
MAYPORT NAS    CLOUDY    69  67  93 S3        29.82F
JACKSONVILLE   CLOUDY    71  66  84 SW6       29.83S
JAX NAS        CLOUDY    78  63  59 S13       29.84F
JAX CRAIG      CLOUDY    74  64  71 SW10      29.83F
JAX CECIL      CLEAR     72  64  78 S9        29.84F
FERNANDINA BEA FAIR      75  70  83 S7        29.80F
ST AUGUSTINE   CLOUDY    72  68  87 S6        29.86F

STATION/POSITION SKY/WX   TEMP    WIND        PRES    WAVE   SWELL
                          AIR SEA DIR/SP/G            HT/PER HT/PER
                          (F)     (DEG/KT/KT) (MB)    (FT/S) (FT/S)
SHELL POINT                73     180/ 11/ 15   N/A
KEATON BEACH               73     200/  7/  7 1010.8F
CEDAR KEY                  74     200/  7/  9 1011.4F
FERNANDINA                 70 75  200/  6/  7 1009.6F
30.7N   81.3W                 71                N/A     3/ 8   2/13
MAYPORT                    73 74  250/  6/  9 1010.6F
31.4N   80.9W              68 69  140/  2/  4 1009.3F   3/14   2/14
ST AUGUSTINE               71 68  200/  6/  7 1012.2R

$$
FLZ040-043>046-052-053-057-058-063-144-200100-
INTERIOR CENTRAL FLORIDA

CITY           SKY/WX    TMP DP  RH WIND       PRES   REMARKS
OCALA          CLOUDY    70  64  83 SW5       29.88F
THE VILLAGES     N/A     72  72 100 W7        29.79F
LEESBURG       CLOUDY    75  65  70 W14G21    29.89F
SANFORD        CLOUDY    76  67  73 NW14      29.88R
ORLANDO EXEC   CLOUDY    77  69  76 NW14      29.88R
ORLANDO INTL   CLOUDY    79  70  74 W10       29.88R
KISSIMMEE      PTCLDY    81  70  69 W12       29.88S
WINTER HAVEN   CLOUDY    82  66  58 W7        29.88F
LAKELAND       PTCLDY    77  68  73 NW10G17   29.90F
BARTOW         FAIR      81  66  61 W12       29.89F
OKEECHOBEE     MOCLDY   N/A N/A N/A W10       29.88R

$$
FLZ041-047-054-059-064-141-147-200100-
EAST CENTRAL FLORIDA

CITY           SKY/WX    TMP DP  RH WIND       PRES   REMARKS
DAYTONA BEACH  CLOUDY    73  70  90 W5        29.89R
DELAND           N/A    N/A N/A N/A NW5       29.89S
NEW SMYRNA BEA MOCLDY    72  70  94 CALM      29.89R
JFK SPACE CTR  CLOUDY    72  69  91 E2        29.87R
TITUSVILLE     MOCLDY    72  72 100 SE6       29.89R
CAPE CANAVERAL HVY RAIN  73  70  88 SW12      29.88S FOG
PATRICK AFB    RAIN      75  72  88 E8        29.89R
MELBOURNE      TSTM      73  68  84 W22G30    29.90R
VERO BEACH     CLOUDY    81  73  76 SE7       29.85F
FT PIERCE      CLOUDY    83  74  74 SE6       29.85S
STUART         MOCLDY    81  66  61 S7        29.87S

STATION/POSITION SKY/WX   TEMP    WIND        PRES    WAVE   SWELL
                          AIR SEA DIR/SP/G            HT/PER HT/PER
                          (F)     (DEG/KT/KT) (MB)    (FT/S) (FT/S)
28.5N   80.2W              80 80  170/ 16/ 17 1011.3R
28.9N   78.5W              80 80  180/ 10/ 12 1012.2F
TRIDENT PIER               75 81  280/  9/ 20 1011.9R
28.4N   80.5W                 79                N/A     3/14   2/14
27.5N   80.2W                 76                N/A     4/14   2/14

$$
FLZ050-056-061-142-242-148-248-149-249-151-251-155-255-
160-260-200100-
WEST CENTRAL FLORIDA

CITY           SKY/WX    TMP DP  RH WIND       PRES   REMARKS
CRYSTAL RIVER  FAIR      70  68  94 CALM      29.88F
INVERNESS      FAIR     N/A N/A N/A CALM      29.89F
BROOKSVILLE    CLOUDY    70  68  93 W3        29.91F
CLEARWATER     CLOUDY    72  69  90 NW7       29.92S
TAMPA INTL     LGT RAIN  72  67  84 NW7       29.92F
TAMPA EXEC     DRIZZLE   73  68  83 N3        29.91F
PLANT CITY     LGT RAIN  73  70  88 NW10      29.93F
MACDILL AFB    CLOUDY    71  71  99 NW8       29.92S
PETER O KNIGHT CLOUDY    73  70  88 NW5       29.91F
ST PETERSBURG  CLOUDY    73  69  87 VRB3      29.90S
SARASOTA       CLOUDY    73  69  87 NW13G22   29.91R
VENICE         MOCLDY    79  73  83 NW14G20   29.92S

STATION/POSITION SKY/WX   TEMP    WIND        PRES    WAVE   SWELL
                          AIR SEA DIR/SP/G            HT/PER HT/PER
                          (F)     (DEG/KT/KT) (MB)    (FT/S) (FT/S)
CEDAR KEY                  74     200/  7/  9 1011.4F
28.5N   84.5W              75 76  220/ 14/ 16 1011.7F   4/ 6
27.3N   84.2W                 78                N/A     4/ 5
CLEARWATER BEACH           74 82  330/ 14/ 16 1012.9F
MIDDLE TAMPA BAY           74     350/ 12/ 17 1013.0R
VENICE                     76 84  320/ 15/ 18 1012.5R

$$
FLZ066-069-070-075>078-162-262-165-265-200100-
SOUTHWEST FLORIDA AND KEYS

CITY           SKY/WX    TMP DP  RH WIND       PRES   REMARKS
PUNTA GORDA    MOCLDY    80  73  79 W10       29.92S
FT MYERS       MOCLDY    81  73  76 SW9       29.90R
SOUTHWEST INTL PTCLDY    80  72  76 W12       29.91S
NAPLES         PTCLDY    81  74  79 SW8       29.91R
MARCO ISLAND   CLOUDY    82  72  69 SW7       29.91R
IMMOKALEE      PTCLDY   N/A N/A N/A W3        29.91S
MARATHON       MOCLDY    81  75  82 E5        29.90S
KEY WEST NAS   CLOUDY    80  73  79 CALM      29.90R
KEY WEST INTL  PTCLDY    82  75  79 E3        29.91R

STATION/POSITION SKY/WX   TEMP    WIND        PRES    WAVE   SWELL
                          AIR SEA DIR/SP/G            HT/PER HT/PER
                          (F)     (DEG/KT/KT) (MB)    (FT/S) (FT/S)
VENICE                     76 84  320/ 15/ 18 1012.5R
NAPLES                     81 85  220/  7/ 11 1012.4R
26.0N   85.6W              74 80  340/ 23/ 33 1013.1R   4/ 6   2/11
DRY TORTUGAS               81        CALM     1012.1R
NW FL BAY                  82     180/  6/  7 1012.7
SAND KEY                   80      70/  4/  5 1012.6R
SOMBRERO KEY               80     100/  6/  7 1013.4R
LONG KEY                   80 85  130/  5/  5 1013.4R
MOLASSES REEF              79 80  170/  3/  4 1012.9R

$$
FLZ067-068-071>074-168-172>174-200100-
SOUTHEAST FLORIDA

CITY           SKY/WX    TMP DP  RH WIND       PRES   REMARKS
W PALM BEACH   MOCLDY    81  71  71 SE17      29.89S
FT LAUDER-EXEC PTCLDY    81  73  76 SE9       29.89S
FT LAUDERDALE  MOCLDY    81  73  76 S13       29.89R
POMPANO BEACH  CLEAR     80  72  76 S15G22    29.89S
PEMBROKE PINES PTCLDY    83  71  67 S9        29.90S
OPA LOCKA      MOCLDY    83  71  67 S10       29.90R
MIAMI          MOCLDY    82  71  69 SE9       29.90S
WEST KENDALL   MOCLDY    82  69  64 S6        29.90S
HOMESTEAD      PTCLDY    78  72  81 S2        29.91R

STATION/POSITION SKY/WX   TEMP    WIND        PRES    WAVE   SWELL
                          AIR SEA DIR/SP/G            HT/PER HT/PER
                          (F)     (DEG/KT/KT) (MB)    (FT/S) (FT/S)
PORT EVERGLADES            80     160/ 11/ 15 1012.3R
VIRGINIA KEY               81 84  180/ 10/ 12 1012.1F
LAKE WORTH                 80 81  160/ 19/ 20 1011.4F



USA.gov is the U.S. government's official web portal to all federal, state and local government web resources and services.